{"data":{"norad_id":61191,"intl_designator":"2024-169C","name":"JILIN-01 KUANFU 02B 3","alt_names":[],"object_type":"PAYLOAD","status":"ACTIVE","operator":null,"country":"PRC","launch_date":"2024-09-20","launch_site_code":"TAISC","launch_vehicle":null,"mission":null,"orbit_class":"UNKNOWN","rcs_meters":null,"size_class":null,"mass_kg":null,"dimensions":null,"purposes":[],"wikipedia_slug":null,"has_3d_model":false,"image_url":null,"decayed_at":null,"tle_current":{"epoch":"2026-05-25T05:24:02.743200Z","epoch_age_seconds":53098,"freshness":"FRESH","line1":"1 61191U 24169C   26145.22503175  .00002755  00000+0  17935-3 0  9999","line2":"2 61191  97.5552 234.9210 0014300  33.2705 326.9419 15.08708258 92360","mean_motion":15.08708258,"eccentricity":0.00143,"inclination_deg":97.5552,"raan_deg":234.921,"arg_perigee_deg":33.2705,"mean_anomaly_deg":326.9419,"bstar":0.00017935,"rev_number":9236,"period_min":95.445888385931,"perigee_km":530.25295602163,"apogee_km":550.03924569007,"semimajor_km":6918.2831008558,"source":"CELESTRAK","updated_at":"2026-05-25T13:38:02.312034Z"}}}